Alex Lima

Chefscout - Cruzeiro
22 Apr 2027
Donnerstag
Verarbeitung

Persönlichkeit

Anpassungsfähigkeit (15) Ehrgeiz (6) Kontroverse (4) Loyalität (13) Druck (16) Professionalität (10) Fairness (10) Temperament (9)

Profil

Trainerstil Demokratisch
Lizenz Nationale B
Entschlossenheit 13
Menschenführung 14
Motivation 10
Disziplin 9
Arbeitszufriedenheit
50%
Ermüdung
0%
Rolle Chefscout
Gehalt 100.8K p/W
Vertrag 14.03.2028

Leistung

Verhalten Normal
Trainingseffektivität
19%
Spielerentwicklung
70%
Verletzungsprävention
55%
Taktische Umsetzung
45%

Letzte Ereignisse

Nahm an einer Scouting-Besprechung teil jetzt
Empfahl ein Transferziel jetzt
Nahm an einer Scouting-Besprechung teil jetzt
Spieler begutachtet jetzt
Spieler begutachtet 7T her
Spieler begutachtet 7T her
Spieler begutachtet 7T her
Spieler begutachtet 7T her

Aktuell beobachtet

168
Spieler Verein Status Fähigkeit Vertrauen Beobachtet Zuletzt beobachtet Letzte Stimme
Radek Vítek Middlesbrough Aktiv 129 / 148 40% 7 21.04.2027 -
Patrick Sequeira Casa Pia Aktiv 123 / 110 40% 5 21.04.2027 -
Tyler Goodrham Oxford United Aktiv 113 / 140 40% 1 21.04.2027 -
Louie Barry Sheffield Wednesday Aktiv 135 / 117 40% 1 21.04.2027 -
Loum Tchaouna Coventry City Aktiv 147 / 131 40% 2 20.04.2027 -
Roméo Beney Famalicao Aktiv 102 / 113 40% 1 20.04.2027 -
Caoimhin Kelleher Brentford Aktiv 169 / 144 40% 8 18.04.2027 -
Bart Verbruggen Brighton Aktiv 147 / 152 40% 9 18.04.2027 -
Juan Soriano Académico de Viseu Aktiv 142 / 120 40% 5 17.04.2027 -
Dean Henderson Crystal Palace Aktiv 148 / 152 40% 5 17.04.2027 -
Jacob Widell Zetterström Derby County Aktiv 137 / 132 40% 1 16.04.2027 -
Juninho Pumas UNAM Aktiv 127 / 137 40% 2 15.04.2027 -
Egil Selvik Watford Aktiv 134 / 132 40% 3 15.04.2027 -
George Wickens Lincoln City Aktiv 104 / 107 40% 3 15.04.2027 -
Yousef Salech Cardiff City Aktiv 120 / 127 40% 1 15.04.2027 -
Lorenzo Palmisani Frosinone Aktiv 140 / 121 40% 1 13.04.2027 -
Samuel Soares Benfica Aktiv 144 / 148 40% 10 12.04.2027 -
Cezary Miszta Rio Ave Aktiv 134 / 144 40% 6 12.04.2027 -
Stanley Mills Oxford United Aktiv 127 / 136 40% 1 12.04.2027 -
Jamie Cumming Oxford United Aktiv 122 / 119 40% 5 10.04.2027 -
Josh Keeley Luton Town Aktiv 131 / 125 40% 5 09.04.2027 -
Simone Scuffet Pisa Aktiv 135 / 136 40% 1 09.04.2027 -
Beni Mukendi Vitoria Guimaraes Aktiv 115 / 132 40% 1 08.04.2027 -
Rodrigo Ramos Moreirense Aktiv 122 / 126 40% 1 08.04.2027 -
Balázs Tóth Blackburn Rovers Aktiv 137 / 126 40% 1 08.04.2027 -
Gonçalo Nogueira Vitoria Guimaraes Aktiv 119 / 106 40% 1 07.04.2027 -
Tim Iroegbunam Hull City Aktiv 148 / 130 40% 1 07.04.2027 -
Juan Brunetta Tigres Aktiv 135 / 148 40% 4 06.04.2027 -
Kostantis Tzolakis Hull City Aktiv 152 / 133 40% 11 06.04.2027 -
Armando Broja Burnley Aktiv 137 / 119 40% 1 06.04.2027 -
Nathan Trott Cardiff City Aktiv 137 / 127 40% 2 03.04.2027 -
Ollie Tanner Cardiff City Aktiv 107 / 118 40% 1 02.04.2027 -
Carlos Forbs Club Brugge Aktiv 130 / 123 40% 1 02.04.2027 -
James Trafford Leeds United Aktiv 138 / 138 40% 5 31.03.2027 -
Erick Reyes Toluca Aktiv 143 / 154 40% 11 30.03.2027 -
Gianluca Prestianni Benfica Aktiv 138 / 145 40% 2 30.03.2027 -
Hugo Cuypers Monterrey Aktiv 123 / 122 40% 1 30.03.2027 -
Adnan Courtois KV Oostende Aktiv 143 / 118 40% 1 30.03.2027 -
Mandla Erasmus SuperSport United Aktiv 124 / 106 40% 1 30.03.2027 -
Pablo Monroy Pumas UNAM Aktiv 110 / 129 40% 1 29.03.2027 -
Khaly Casa Pia Aktiv 111 / 125 40% 1 29.03.2027 -
Mads Hermansen West Ham United Aktiv 153 / 135 40% 3 27.03.2027 -
Luis Malagón Club America Aktiv 133 / 130 40% 12 26.03.2027 -
Juan Diego Castillo Vitoria Guimaraes Aktiv 105 / 120 40% 3 25.03.2027 -
Carlos Moreno Pachuca Aktiv 138 / 140 40% 3 23.03.2027 -
Antonio Gomis Vizela Aktiv 138 / 133 40% 1 23.03.2027 -
Lukas Jensen Millwall Aktiv 121 / 119 40% 2 21.03.2027 -
Oli McBurnie Hull City Aktiv 138 / 129 40% 3 19.03.2027 -
George Hirst Stoke City Aktiv 135 / 125 40% 1 19.03.2027 -
Hugo Souza Corinthians Aktiv 145 / 142 40% 5 18.03.2027 -
Gabriel Brazão Santos Aktiv 128 / 143 40% 7 15.03.2027 -
Viktor Johansson Stoke City Aktiv 148 / 120 40% 2 14.03.2027 -
Max O'Leary West Bromwich Albion Aktiv 140 / 127 40% 2 14.03.2027 -
Petar Musa Adana Demirspor Aktiv 131 / 139 40% 1 14.03.2027 -
Moussa Dembélé CR Belouizdad Aktiv 128 / 122 40% 1 14.03.2027 -
Ignacio de Arruabarrena Arouca Aktiv 144 / 122 40% 11 11.03.2027 -
Raúl Rangel Sporting CP Aktiv 146 / 144 40% 5 11.03.2027 -
Adriel Torreense Aktiv 108 / 132 40% 2 10.03.2027 -
Jakub Stolarczyk Leicester City Aktiv 130 / 132 40% 4 07.03.2027 -
Arijanet Murić Sassuolo Aktiv 128 / 144 40% 1 06.03.2027 -
Lazar Carević Famalicao Aktiv 132 / 120 40% 6 04.03.2027 -
Michael Cooper Sheffield United Aktiv 120 / 140 40% 2 02.03.2027 -
Dodi Lukébakio Benfica Aktiv 156 / 144 40% 3 01.03.2027 -
Ivan Toney Al-Ahli Aktiv 156 / 147 40% 1 01.03.2027 -
Zeki Amdouni Burnley Aktiv 126 / 135 40% 2 28.02.2027 -
Robin Roefs Sunderland Aktiv 159 / 153 40% 6 26.02.2027 -
Callum O'Hare Sheffield United Aktiv 120 / 144 40% 1 26.02.2027 -
Stav Toriel Hapoel Tel Aviv Aktiv 136 / 133 40% 1 25.02.2027 -
Dominic Calvert-Lewin Leeds United Aktiv 148 / 135 40% 1 25.02.2027 -
André Silva Tondela Aktiv 116 / 124 40% 2 24.02.2027 -
Iker Benito Queretaro Aktiv 117 / 130 40% 2 23.02.2027 -
Rodrigo Pinheiro Famalicao Aktiv 115 / 118 40% 1 23.02.2027 -
Yusuke Matsuo Esteghlal Aktiv 117 / 124 40% 1 22.02.2027 -
Domagoj Drožđek Tractor Aktiv 118 / 115 40% 1 22.02.2027 -
Fotis Ioannidis Rio Ave Aktiv 134 / 144 40% 3 19.02.2027 -
Jackson Muleka Konyaspor Aktiv 126 / 143 40% 1 19.02.2027 -
Luis Vázquez Birmingham Aktiv 128 / 139 40% 1 18.02.2027 -
Lewis Morgan SuperSport United Aktiv 123 / 133 40% 1 18.02.2027 -
Iván Fresneda Sporting CP Aktiv 147 / 127 40% 1 18.02.2027 -
Nicolas Schmid Portsmouth Aktiv 108 / 132 40% 3 16.02.2027 -
Vitor Eudes Fluminense Aktiv 128 / 118 40% 1 14.02.2027 -
Robin Risser RC Lens Aktiv 133 / 134 40% 3 13.02.2027 -
Ilay Camara Anderlecht Aktiv 116 / 125 40% 1 13.02.2027 -
Ilyas Ansah Hull City Aktiv 122 / 120 40% 1 09.02.2027 -
Hany Mukhtar Spezia Aktiv 153 / 119 40% 1 09.02.2027 -
Beau Reus Waasland-Beveren Aktiv 128 / 117 40% 1 09.02.2027 -
Sipho Chaine Orlando Pirates Aktiv 135 / 103 40% 1 08.02.2027 -
Igor Jesus Nottingham Forest Aktiv 149 / 142 40% 1 07.02.2027 -
Kerem Aktürkoğlu Fenerbahce Aktiv 158 / 124 40% 1 07.02.2027 -
Lucas Arcanjo Vitória Aktiv 129 / 122 40% 2 06.02.2027 -
Yehvann Diouf OGC Nice Aktiv 134 / 127 40% 1 04.02.2027 -
Taichi Fukui Arouca Aktiv 110 / 143 40% 1 03.02.2027 -
Keagan Mothiba SuperSport United Aktiv 117 / 122 40% 1 03.02.2027 -
John Kennedy Fluminense Aktiv 116 / 134 58% 1 28.12.2026 Befürworten
Nick Pope Newcastle United Aktiv 127 / 139 40% 1 22.12.2026 -
Pedro Flamengo Abgelehnt 144 / 143 58% 1 07.12.2026 Ablehnen
Alessandro Buongiorno Sassuolo Aktiv 169 / 154 40% 1 30.11.2026 -
Christian Krasnodar Aktiv 142 / 144 40% 1 30.11.2026 -
Nicolás Sumavil Platense Aktiv 117 / 114 40% 1 27.11.2026 -
Daniel Iversen Preston Aktiv 124 / 113 40% 3 25.11.2026 -
Lucas Piton Vasco da Gama Aktiv 140 / 140 40% 1 25.11.2026 -
Anel Ahmedhodžić Burnley Aktiv 129 / 132 40% 1 25.11.2026 -
Ortwin De Wolf KV Mechelen Aktiv 130 / 138 40% 1 22.11.2026 -
André Moreira Oliveirense Aktiv 122 / 98 40% 1 22.11.2026 -
Carlos Vinícius Grêmio Aktiv 124 / 130 40% 1 19.11.2026 -
Héctor Hernández Gil Vicente Aktiv 134 / 135 40% 1 19.11.2026 -
Neymar Santos Aktiv 154 / 152 40% 2 17.11.2026 -
Geovanni Banguera Deportivo Pasto Aktiv 112 / 117 40% 2 13.11.2026 -
Ezequiel Centurión River Plate Aktiv 127 / 128 40% 1 11.11.2026 -
Bernardo Fontes Braga Aktiv 120 / 121 40% 1 10.11.2026 -
Víctor Cabezas Union Magdalena Aktiv 114 / 129 40% 1 02.11.2026 -
Matěj Kovář PSV Aktiv 137 / 151 40% 1 02.11.2026 Mehr Infos nötig
André Ferreira Moreirense Aktiv 104 / 110 40% 2 31.10.2026 -
Chuchu Ramírez Nacional Aktiv 117 / 111 40% 1 31.10.2026 -
Gustaf Lagerbielke Braga Aktiv 149 / 118 40% 1 31.10.2026 -
Aníbal Moreno River Plate Aktiv 139 / 126 40% 1 31.10.2026 -
Sebastián Meza Huracán Aktiv 116 / 132 40% 1 28.10.2026 -
Alfonso Trezza Arouca Aktiv 135 / 128 40% 1 27.10.2026 -
Luis Ingolotti Atlético Tucumán Aktiv 122 / 116 40% 1 25.10.2026 -
Samu Aghehowa AS Roma Aktiv 157 / 149 40% 2 24.10.2026 -
Eduardo Sasha Bragantino Aktiv 129 / 133 40% 1 24.10.2026 -
Facundo Cambeses Racing Club Aktiv 132 / 118 40% 1 23.10.2026 -
Felipe Parra Envigado Aktiv 113 / 114 40% 3 19.10.2026 -
José Manuel López Palmeiras Aktiv 125 / 142 40% 1 19.10.2026 -
Christian Walton Ipswich Town Aktiv 144 / 125 40% 2 18.10.2026 -
Julian Zapata Cortulua Aktiv 124 / 135 40% 2 16.10.2026 -
Gabriel Jesus Barcelona Aktiv 139 / 140 40% 1 16.10.2026 -
Gabriel Veron Porto Aktiv 129 / 128 40% 1 15.10.2026 -
Gabriel Batista Botafogo Aktiv 137 / 128 40% 3 10.10.2026 -
Drake Callender Minnesota United FC Aktiv 127 / 124 40% 1 08.10.2026 -
Jean America de Cali Aktiv 120 / 132 40% 3 06.10.2026 -
Matheus Mendes Alverca Aktiv 105 / 129 40% 2 04.10.2026 -
Carlos Miguel Palmeiras Aktiv 137 / 140 40% 4 02.10.2026 -
Antoine Griezmann Orlando City Aktiv 158 / 154 40% 2 30.09.2026 -
Inti López River Plate Aktiv 92 / 90 40% 1 28.09.2026 -
Patrick Schulte Columbus Crew Aktiv 120 / 111 40% 1 25.09.2026 -
Jalen Blesa Rio Ave Aktiv 101 / 132 40% 1 25.09.2026 -
Gustavo Silva Vitoria Guimaraes Aktiv 112 / 106 40% 1 25.09.2026 -
Youssoufa Moukoko FC Copenhagen Aktiv 135 / 131 40% 1 23.09.2026 -
Vinícius Lopes Santa Clara Aktiv 126 / 129 40% 1 21.09.2026 -
Jonás Luna Santa Clara Aktiv 117 / 115 40% 1 19.09.2026 -
Ejike Opara Vitoria Guimaraes Aktiv 107 / 108 40% 1 19.09.2026 -
Jovan Milošević Braga Aktiv 132 / 104 40% 1 16.09.2026 -
Felipe Zenobio Tigre Aktiv 118 / 119 40% 1 12.09.2026 -
Mark Travers Everton Aktiv 136 / 138 40% 1 12.09.2026 -
Andrés Gudiño Cruz Azul Aktiv 121 / 114 40% 1 10.09.2026 -
Léo Jacó Santa Clara Aktiv 92 / 118 40% 1 10.09.2026 -
Markus Jensen Nacional Aktiv 119 / 105 40% 1 10.09.2026 -
Paulinho Palmeiras Aktiv 147 / 130 40% 2 07.09.2026 -
Roberto Fernández Braga Aktiv 126 / 142 40% 1 07.09.2026 -
Roberto Ramírez Godoy Cruz Aktiv 128 / 122 40% 1 05.09.2026 -
Rafa Benfica Aktiv 152 / 137 40% 1 02.09.2026 -
Arnel Jakupović Vitoria Guimaraes Aktiv 108 / 99 40% 1 01.09.2026 -
Diego Rossi Monterrey Aktiv 127 / 138 40% 1 01.09.2026 -
Mohammed Bouldini Académico de Viseu Aktiv 130 / 128 40% 1 30.08.2026 -
Nicolás Campisi Sportivo Luqueno Aktiv 129 / 115 40% 1 27.08.2026 -
Matt Freese New York City Aktiv 134 / 118 40% 1 22.08.2026 -
Grégoire Coudert Burnley Aktiv 130 / 132 40% 2 18.08.2026 -
Manuel Roffo Cerro Porteno Aktiv 134 / 116 40% 1 15.08.2026 -
Oliver Dovin Coventry City Aktiv 111 / 112 40% 1 14.08.2026 -
Alejandro Rodríguez Deportivo Cali Aktiv 115 / 130 40% 1 13.08.2026 -
Heung-Min Son Los Angeles Football Club Aktiv 150 / 152 40% 1 12.08.2026 -
Yoane Wissa Newcastle United Aktiv 155 / 143 40% 1 12.08.2026 -
Denis Bouanga Los Angeles Football Club Aktiv 126 / 125 40% 1 07.08.2026 -
Ronaldo Bahia Aktiv 127 / 123 40% 1 04.08.2026 -
Unai Simón Athletic Bilbao Aktiv 152 / 176 40% 1 04.08.2026 -
Augusto Batalla Rayo Vallecano Aktiv 145 / 153 40% 1 03.08.2026 -
Andrew Flamengo Aktiv 120 / 134 40% 1 01.08.2026 -